UZB1201 UZTT-UAAA

Flight info

Callsign UZB1201
Flight time N/A
Altitude 35000
Route TISIB2C TISIB P984 MAMIR L135 LAKEL LAKEL2M
Aircraft A20N/M-SDE2E3FGHIRWXY/LB1

Departure

Time 2026-04-26 16:21
Airport Tashkent International Airport (UZTT)

Arrival

Time N/A
Airport Almaty International Airport (UAAA)
Time Latitude Longitude Altitude Speed Heading
2026-04-26 16:12 41.26040 69.27001 1381 ft 0 kts 335°
2026-04-26 16:14 41.26047 69.26997 1378 ft 1 kts 335°
2026-04-26 16:15 41.26059 69.26991 1379 ft 3 kts 352°
2026-04-26 16:15 41.26074 69.27004 1380 ft 3 kts 41°
2026-04-26 16:15 41.26096 69.27037 1378 ft 6 kts 56°
2026-04-26 16:16 41.26111 69.27185 1380 ft 11 kts 129°
2026-04-26 16:16 41.26074 69.27269 1381 ft 11 kts 84°
2026-04-26 16:16 41.26080 69.27381 1378 ft 13 kts 82°
2026-04-26 16:16 41.26095 69.27515 1380 ft 16 kts 82°
2026-04-26 16:17 41.26112 69.27669 1378 ft 18 kts 82°
2026-04-26 16:17 41.26131 69.27843 1381 ft 20 kts 82°
2026-04-26 16:17 41.26152 69.28034 1377 ft 22 kts 81°
2026-04-26 16:17 41.26176 69.28243 1381 ft 23 kts 81°
2026-04-26 16:18 41.26192 69.28434 1378 ft 20 kts 91°
2026-04-26 16:18 41.26132 69.28744 1377 ft 16 kts 137°
2026-04-26 16:19 41.25955 69.28899 1378 ft 17 kts 199°
2026-04-26 16:19 41.25924 69.28823 1378 ft 0 kts 260°
2026-04-26 16:20 41.25887 69.28460 1380 ft 75 kts 262°
2026-04-26 16:20 41.25780 69.27505 1381 ft 132 kts 262°
2026-04-26 16:21 41.25615 69.26100 1513 ft 164 kts 265°
2026-04-26 16:21 41.25442 69.24619 2182 ft 161 kts 264°
2026-04-26 16:21 41.25276 69.23143 2801 ft 162 kts 264°
2026-04-26 16:21 41.25129 69.21646 3328 ft 168 kts 263°
2026-04-26 16:22 41.24952 69.20042 3750 ft 180 kts 261°
2026-04-26 16:22 41.24752 69.18354 4131 ft 192 kts 261°
2026-04-26 16:22 41.24550 69.16525 4453 ft 209 kts 262°
2026-04-26 16:22 41.24334 69.14513 4648 ft 229 kts 261°
2026-04-26 16:23 41.24089 69.12373 4938 ft 243 kts 256°
2026-04-26 16:23 41.23313 69.10410 5557 ft 239 kts 225°
2026-04-26 16:23 41.21929 69.09259 6121 ft 238 kts 195°
2026-04-26 16:23 41.20258 69.09168 6622 ft 242 kts 173°
2026-04-26 16:24 41.18563 69.09480 6866 ft 255 kts 173°
2026-04-26 16:24 41.16738 69.09822 7026 ft 272 kts 173°
2026-04-26 16:24 41.14873 69.10364 7384 ft 280 kts 157°
2026-04-26 16:24 41.13296 69.11905 7870 ft 286 kts 130°
2026-04-26 16:25 41.12382 69.14246 8344 ft 290 kts 104°
2026-04-26 16:25 41.12229 69.16895 8803 ft 294 kts 88°